Home > Weather > Creston > Past weeks

Flag for Canada Weather for the Past 2 Weeks in Creston, British Columbia, Canada

Now
34 °F

Chilly.


Feels Like: 34 °F
Forecast: 24 / 41 °F
Wind: 1 mph from Northeast

Location: Creston

Current Time: Feb 8, 2016 at 4:15:17 AM

Latest Report: Feb 8, 2016 at 3:00 AM


Visibility: N/A

Pressure: 30.75 "Hg (28.48 "Hg at 617m altitude)

Humidity: 77%

Dew point: 27 °F

Location of CrestonLocation

Historic Weather in Creston — Graph

°F

Creston Temperature Yesterday

Maximum temperature yesterday: 37 °F (at 12:00 PM)
Minimum temperature yesterday: 28 °F (at 8:00 AM)
Average temperature yesterday: 33 °F

High & Low Weather Summary for the Past Weeks

 TemperatureHumidityPressure
High45 °F (Feb 6, 1:00 PM)100% (Jan 24, 4:00 AM)30.76 "Hg (Jan 24, 4:00 AM)
Low21 °F (Feb 3, 7:00 AM)38% (Feb 6, 1:00 PM)29.67 "Hg (Jan 29, 4:00 PM)
Average33 °F86%30.22 "Hg
* Reported Jan 24 3:00 AM — Feb 8 3:00 AM, Creston, Weather by CustomWeather, © 2016

Note: Actual official high and low records may vary slightly from our data, if they occured in-between our weather recording intervals... More about our weather records

Advertising

Creston Weather History for the Previous 24 Hours

 ConditionsComfort  
Time TempWeatherWind HumidityBarometerVisibility
3:00 AM
Mon, Feb 8
34 °FChilly.1 mph77%30.75 "HgN/A
2:00 AM33 °FChilly.2 mph79%30.74 "HgN/A
1:00 AM33 °FChilly.2 mph78%30.76 "HgN/A
12:00 AM34 °FChilly.2 mph75%30.76 "HgN/A
11:00 PM
Sun, Feb 7
34 °FChilly.No wind76%30.76 "HgN/A
10:00 PM34 °FChilly.2 mph75%30.76 "HgN/A
9:00 PM34 °FChilly.No wind73%30.76 "HgN/A
8:00 PM34 °FChilly.2 mph74%30.76 "HgN/A
7:00 PM34 °FChilly.2 mph73%30.75 "HgN/A
6:00 PM34 °FChilly.1 mph73%30.75 "HgN/A
5:00 PM35 °FChilly.2 mph71%30.73 "HgN/A
4:00 PM36 °FChilly.6 mph67%30.73 "HgN/A
3:00 PM35 °FChilly.2 mph70%30.72 "HgN/A
2:00 PM36 °FChilly.1 mph62%30.71 "HgN/A
1:00 PM35 °FChilly.3 mph66%30.72 "HgN/A
12:00 PM37 °FChilly.1 mph61%30.73 "HgN/A
11:00 AM35 °FChilly.1 mph59%30.73 "HgN/A
10:00 AM29 °FChilly.2 mph75%30.72 "HgN/A
9:00 AM29 °FChilly.2 mph69%30.71 "HgN/A
8:00 AM28 °FChilly.3 mph74%30.68 "HgN/A
7:00 AM28 °FChilly.3 mph73%30.66 "HgN/A
6:00 AM28 °FChilly.5 mph73%30.65 "HgN/A
5:00 AM29 °FChilly.5 mph73%30.61 "HgN/A
4:00 AM30 °FChilly.3 mph72%30.59 "HgN/A
Weather by CustomWeather, © 2016

See weather overviewHow to use our weather pages